Tracking 22881 objects as of 19-Apr-2021
HD Live streaming from Space Station
objects crossing your sky now

STARLINK 1024

Track STARLINK 1024 now!
10-day predictions
STARLINK 1024 is classified as:


NORAD ID: 44729
Int'l Code: 2019-074S
Perigee: 551.2 km
Apogee: 555.4 km
Inclination: 53.0 °
Period: 95.6 minutes
Semi major axis: 6924 km
RCS: Unknown
Launch date: November 11, 2019
Source: United States (US)
Launch site: AIR FORCE EASTERN TEST RANGE (AFETR)
aabbcc
Your satellite tracking list
Your tracking list is empty




NASA's NSSDC Master Catalog

Two Line Element Set (TLE):
1 44729U 19074S   21108.89770310  .00003320  00000-0  23957-3 0  9991
2 44729  53.0008 302.5521 0003014  81.1873 278.9457 15.06736079 79314
Source of the keplerian elements: AFSPC